User: anonymous   Login
Location: Unspecified
(0.0000°N, 0.0000°E)
Time: 12:27:05
(UTC+00:00)
Language:

SES 6 - Orbit

View from above orbital plane
View from above orbital plane
View from above satellite
View from above satellite

Ground track
Ground track

The orbit data is extracted from the following two-line orbital elements,

1 39172U 13026A   16210.16728671 -.00000280  00000-0  00000+0 0  9992
2 39172   0.0195  13.0364 0002404 144.3344 168.5851  1.00270238 11525
Epoch (UTC): 28 July 2016 04:00:53
Eccentricity: 0.0002404
inclination: 0.0195°
perigee height: 35776 km
apogee height: 35797 km
right ascension of ascending node: 13.0364°
argument of perigee: 144.3344°
revolutions per day: 1.00270238
mean anomaly at epoch: 168.5851°
orbit number at epoch: 1152

The dashed part of the orbit path shows where the satellite is in the earth's shadow,  

DLR